Regional Weather Roundup
Issued by NWS

Home | Current Version | Previous Version | Text Only | Print | Product List | Glossary Off
Versions: 1 2 3 4 5 6 7 8 9 10 11 12 13 14 15 16 17 18 19 20 21 22 23 24 25 26 27 28 29 30 31 32 33 34 35 36 37 38 39 40 41 42 43 44 45 46 47 48 49 50

000
ASUS44 KMEG 201310
RWRTN
TENNESSEE HOURLY STATE WEATHER ROUNDUP
NATIONAL WEATHER SERVICE MEMPHIS TN
800 AM CDT WED AUG 20 2014

TNZ002-004-019-021-049-052-054-088>092-201400-
WEST TENNESSEE

CITY           SKY/WX    TMP DP  RH WIND       PRES   REMARKS
MEMPHIS INTL   MOSUNNY   80  74  81 SW5       30.00R
NWS MEMPHIS      N/A     79 N/A N/A MISG        N/A
JACKSON        SUNNY     79  75  87 SW12      29.98R
DYERSBURG      SUNNY     81  70  69 SW7       29.98R
UNION CITY     SUNNY     79  77  94 SW7       29.94R
PARIS          SUNNY     77  75  94 SW8       29.96R
HUNTINGDON     SUNNY     78  75  90 SW6       29.96R
LEXINGTON      SUNNY     77  75  94 S6        29.97S
SAVANNAH       SUNNY     77  77 100 SW5       30.01R
$$

TNZ008-025-027-028-033-062-065-066-201400-
NORTH MIDDLE TENNESSEE

CITY           SKY/WX    TMP DP  RH WIND       PRES   REMARKS
NASHVILLE      MOSUNNY   81  75  82 SW7       29.97R
PORTLAND       SUNNY     77  73  88 S5        29.95R
CLARKSVILLE    MOSUNNY   78  75  90 SW9       29.94R
SMYRNA         MOSUNNY   79  75  87 CALM      29.98R
MURFREESBORO   SUNNY     78  72  82 SW5       29.97S
COOKEVILLE     CLOUDY    75  73  94 S5        30.01R
GALLATIN       CLOUDY    75  75 100 CALM      29.98R
CROSSVILLE     PTSUNNY   76  71  85 SW3       30.06R
$$

TNZ061-075-076-078-094-096-097-201400-
SOUTH MIDDLE TENNESSEE

CITY           SKY/WX    TMP DP  RH WIND       PRES   REMARKS
LEWISBURG      SUNNY     80  74  82 SW5       29.99R
FAYETTEVILLE   PTSUNNY   75  73  94 SW7       30.03R
TULLAHOMA      PTSUNNY   75  73  94 SW7       30.03R
WINCHESTER     SUNNY     79  73  83 W5        30.03R
MCMINNVILLE    CLOUDY    75  75 100 SW5       30.02R
COLUMBIA       SUNNY     81  77  89 SW8       29.98R
SHELBYVILLE    SUNNY     79  75  89 S6        30.01R
$$

TNZ017-018-042-046-047-201400-
NORTHEAST TENNESSEE

CITY           SKY/WX    TMP DP  RH WIND       PRES   REMARKS
TRI CITIES     LGT RAIN  70  66  87 S5        30.06R
ELIZABETHTON   LGT RAIN  64  64 100 CALM      30.08R
$$

TNZ012-013-036-069-073-074-201400-
CENTRAL EAST TENNESSEE

CITY           SKY/WX    TMP DP  RH WIND       PRES   REMARKS
KNOXVILLE      PTSUNNY   75  70  84 W3        30.01R
OAK RIDGE      CLOUDY    74  72  93 SW5       30.03R
GATLINBURG     MOSUNNY   72  66  83 CALM      30.01R
MORRISTOWN     SUNNY     73  72  94 CALM      30.04R
$$

TNZ083-085-099-201400-
SOUTHEAST TENNESSEE

CITY           SKY/WX    TMP DP  RH WIND       PRES   REMARKS
CHATTANOOGA    MOSUNNY   76  71  85 CALM      30.03R
$$

SKY/WX REPORTED AS FAIR MEANS FEW OR NO CLOUDS BELOW
12 THOUSAND FEET.



USA.gov is the U.S. government's official web portal to all federal, state and local government web resources and services.